Miscellaneous Local Product
Issued by NWS North Platte, NE

Home | Current Version | Previous Version | Text Only | Print | Product List | Glossary On
Versions: 1 2 3 4 5 6 7 8 9 10 11 12 13 14 15 16 17 18 19 20 21 22 23 24 25 26 27 28 29 30 31 32 33 34 35 36 37 38 39 40 41 42 43 44 45 46 47 48 49 50
000
AXUS43 KLBF 012010
MISLBF


WESTERN AND NORTH CENTRAL NEBRASKA HOURLY WEATHER ROUNDUP
NATIONAL WEATHER SERVICE NORTH PLATTE NE
200 PM CST THU DEC 01 2016

NOTE: "FAIR" INDICATES FEW OR NO CLOUDS BELOW 12,000 FEET WITH NO
SIGNIFICANT WEATHER AND/OR OBSTRUCTIONS TO VISIBILITY.

NOTE: STATIONS NOT REPORTING VARIABLES SUCH AS SKY/WEATHER OR
PRESSURE ARE PROVIDED BY RAWS AND APRS NETWORKS AND ARE NOT UNDER
NATIONAL WEATHER SERVICE QUALITY CONTROL.

...OBSERVATIONS IN AND NEAR THE EASTERN PANHANDLE OF NEBRASKA...

CITY           SKY/WX    TMP DP  RH WIND       PRES   REMARKS
PINE RIDGE     SUNNY     34  21  59 CALM      29.91F
CHADRON        CLOUDY    42  14  32 NW14      29.92F
ALLIANCE       SUNNY     41  10  28 NW9       29.90F
SIDNEY         SUNNY     41  11  29 NW10      29.92F
CRESCENT LAKE    N/A     41  10  27 N6          N/A
$$

...OBSERVATIONS IN NORTHERN NEBRASKA AND FAR SOUTHERN SOUTH DAKOTA...

CITY           SKY/WX    TMP DP  RH WIND       PRES   REMARKS
WINNER         CLOUDY    31  25  78 NW9       29.96F WCI  23
VALENTINE      CLOUDY    34  22  61 N6        29.94F WCI  29
THEDFORD       SUNNY     45  19  35 N8        29.92F
AINSWORTH      CLOUDY    32  24  71 NW7       29.94S WCI  26
O`NEILL        CLOUDY    32  26  77 NW8       29.96S WCI  25
ORD            SUNNY     39  21  48 CALM      29.95F
BROKEN BOW     SUNNY     42  19  39 NW5       29.93F
VALENTINE NWR    N/A     38  20  48 N5G12       N/A  WCI  34
BUTTE            N/A     29  26  86 NW8         N/A  WCI  21
HALSEY           N/A     44  18  35 W3          N/A
CHAMBERS         N/A     35  21  57 CALM        N/A
EWING            N/A     32  27  81 NW5         N/A  WCI  27
$$

...OBSERVATIONS IN SOUTHWEST NEBRASKA AND FAR NORTHEAST COLORADO...

CITY           SKY/WX    TMP DP  RH WIND       PRES   REMARKS
WRAY           MOCLDY    48   7  18 W13G21    29.94
HOLYOKE        FAIR      46  12  25 W17G23    29.93F
IMPERIAL       SUNNY     45  14  28 W9        29.93F
OGALLALA       SUNNY     44  18  35 SW6       29.93F
NORTH PLATTE   SUNNY     43  18  36 SW5       29.94F
MCCOOK         SUNNY     42  18  37 SW6       29.97F
LEXINGTON      SUNNY     42  20  41 CALM      29.95F
STAPLETON        N/A     44  19  36 CALM        N/A
GOTHENBURG       N/A     43  16  33 W5          N/A
CALLAWAY         N/A     42  18  38 W7          N/A
$$

...OBSERVATIONS IN CENTRAL LINCOLN COUNTY AREA...

CITY           SKY/WX    TMP DP  RH WIND       PRES   REMARKS
N.P. AIRPORT   SUNNY     43  18  36 SW5       29.94F
N.P. DOWNTOWN    N/A     41  20  43 CALM        N/A
N.P. SOUTHEAST   N/A     42  20  41 CALM        N/A
N.P. HILLCREST   N/A     42  22  44 W5          N/A
$$

...SOME OBSERVATIONS FROM AROUND THE REGION...

CITY           SKY/WX    TMP DP  RH WIND       PRES   REMARKS
LARAMIE        CLOUDY    27  10  49 N7        29.86F WCI  19
CHEYENNE       CLOUDY    35  10  35 W6        29.87F WCI  30
DENVER         PTSUNNY   39   4  23 SE5       29.90F
AKRON          SUNNY     40   9  28 NW7       29.92F
SCOTTSBLUFF    SUNNY     42  14  32 NW9       29.92F
RAPID CITY     SUNNY     36  18  48 N13       29.91S WCI  27
BISMARCK       CLOUDY    31  28  89 N5        29.99S WCI  26
PIERRE         CLOUDY    30  27  88 N9        29.96S WCI  22
SIOUX FALLS    CLOUDY    34  30  85 NW10      29.95S WCI  26
OMAHA          CLOUDY    37  26  64 SW6       30.01R WCI  32
GRAND ISLAND   MOSUNNY   41  25  53 VRB7      29.98F
KANSAS CITY    PTSUNNY   42  24  49 W9        30.02F
WICHITA        MOSUNNY   52  21  29 NE3       29.99F
OKLAHOMA CITY  MOSUNNY   62  25  24 S13       29.97F
DALLAS         MOSUNNY   66  22  18 S9        30.01F
AMARILLO       SUNNY     49  16  26 VRB5      29.94F
DODGE CITY     SUNNY     50  11  20 E3        29.98F
GOODLAND       SUNNY     43  10  26 S8        29.95F
$$




USA.gov is the U.S. government's official web portal to all federal, state and local government web resources and services.